Погода в Фадеевке

Россия / Приморский край     44°04′26″N   131°24′03″E
темп.,
°C
ветер,
м/с
пор.,
м/с
влажн.,
%
обл.,
%
осадки,
мм/ч
давл.,
гПа
погр.,
м
23 января, сб
сб2301:00−18з11960 0.0 102920
04:00−19з11880 0.0 103020
07:00−19сз11840 0.0 103020
10:00−17зсз11840 0.0 103120
13:00−12зсз01770 0.0 1030194
16:00−10вюв11780 0.0 1028182
19:00−16ссв00870 0.0 102920
22:00−17з11840 0.0 102920
24 января, вс
вс2401:00−17з11860 0.0 103020
04:00−17зюз11860 0.0 102920
07:00−17зюз11820 0.0 102820
10:00−14ююз00800 0.0 103020
13:00−7юз11730 0.0 1029177
16:00−5вюв22820 0.0 1028127
19:00−11св11860 0.0 102921
22:00−13ссз11850 0.0 103021
25 января, пн
пн2501:00−13св00870 0.0 103121
04:00−14св01890 0.0 103221
07:00−15ссв01900 0.0 103120
10:00−13св00870 0.0 103220
13:00−8вюв11810 0.0 1029203
16:00−6в22850 0.0 1027216
19:00−11в119067 0.0 102621
22:00−12зюз119083 0.0 102522
26 января, вт
вт2601:00−9зсз1295100 0.0 102326
04:00−6зсз1293100 0.0 102127
07:00−4зсз1198100 0.5 101851
10:00−3з1294100 0.6 101751
13:00+1зюз3998100 0.0 1016314
16:00+2зюз4117275 0.0 1015444
19:00−5зсз410670 0.0 1017182
22:00−7з614720 0.0 1019309
27 января, ср
ср2701:00−12з33790 0.0 102028
04:00−14з33790 0.0 102169
07:00−16юз12780 0.0 102120
10:00−14юз11770 0.0 102221
13:00−8з612570 0.0 10221757
16:00−8зсз511640 0.0 10211726
19:00−14з237456 0.0 102430
22:00−16з237772 0.0 102526